This is the latest recevied weather packets stored in our database for station/object SP2ARQ-13. If no packets are shown the sender has not sent any weather packets the latest 10 day(s).
| Time | Temp. | Humidity | Pressure | Rain* | Wind** | Luminosity | Snow |
|---|---|---|---|---|---|---|---|
| 1777679846 | 10.56° C | 63% | 1024.3 hPa | - | - | - | - |
| 1777678946 | 11.11° C | 60% | 1024.3 hPa | - | - | - | - |
| 1777678046 | 11.11° C | 61% | 1024.3 hPa | - | - | - | - |
| 1777677146 | 11.11° C | 59% | 1024.4 hPa | - | - | - | - |
| 1777676246 | 11.67° C | 59% | 1024.5 hPa | - | - | - | - |
| 1777675346 | 11.67° C | 58% | 1024.4 hPa | - | - | - | - |
| 1777674446 | 12.22° C | 56% | 1024.4 hPa | - | - | - | - |
| 1777673545 | 12.78° C | 56% | 1024.5 hPa | - | - | - | - |
| 1777672645 | 12.78° C | 55% | 1024.5 hPa | - | - | - | - |
| 1777671745 | 13.33° C | 54% | 1024.5 hPa | - | - | - | - |
| 1777670845 | 13.33° C | 54% | 1024.4 hPa | - | - | - | - |
| 1777669945 | 13.89° C | 53% | 1024.4 hPa | - | - | - | - |
| 1777669045 | 13.89° C | 52% | 1024.3 hPa | - | - | - | - |
| 1777668144 | 14.44° C | 51% | 1024.3 hPa | - | - | - | - |
| 1777667244 | 15° C | 50% | 1024.2 hPa | - | - | - | - |
| 1777666344 | 15.56° C | 49% | 1024.2 hPa | - | - | - | - |
| 1777665444 | 15.56° C | 48% | 1024.3 hPa | - | - | - | - |
| 1777664544 | 15.56° C | 50% | 1024.3 hPa | - | - | - | - |
| 1777663644 | 16.11° C | 48% | 1024.3 hPa | - | - | - | - |
| 1777662743 | 16.67° C | 46% | 1024.1 hPa | - | - | - | - |
| 1777661843 | 17.22° C | 45% | 1024.2 hPa | - | - | - | - |
| 1777660943 | 17.78° C | 45% | 1024.2 hPa | - | - | - | - |
| 1777660043 | 18.33° C | 45% | 1024.1 hPa | - | - | - | - |
| 1777659143 | 18.89° C | 43% | 1024 hPa | - | - | - | - |
| 1777658243 | 19.44° C | 41% | 1023.9 hPa | - | - | - | - |
* Rain since midnight (hover to see other rain measurements)
** Current wind speed in m/s (hover to see current wind gust speed)